Home > Weather > Nizhny Novgorod > Past weeks

Flag for Russia Weather for the Past 2 Weeks in Nizhny Novgorod, Russia

Now
57 °F

Scattered clouds.


Feels Like: 55 °F
Forecast: 41 / 62 °F
Wind: 10 mph from East

Location: Nizhny Novgorod/Strigino

Current Time: Apr 30, 2016 at 2:28:23 PM

Latest Report: Apr 30, 2016 at 2:00 PM


Visibility: N/A

Pressure: 30.24 "Hg

Humidity: 31%

Dew Point: 27 °F

Location of Nizhny NovgorodLocation

Historic Weather in Nizhny Novgorod — Graph

°F

Nizhny Novgorod Temperature Yesterday

Maximum temperature yesterday: 61 °F (at 2:30 PM)
Minimum temperature yesterday: 45 °F (at 4:00 AM)
Average temperature yesterday: 53 °F

High & Low Weather Summary for the Past Weeks

 TemperatureHumidityPressure
High70 °F (Apr 16, 3:00 PM)100% (Apr 15, 10:30 PM)30.33 "Hg (Apr 15, 10:30 PM)
Low32 °F (Apr 17, 11:30 PM)17% (Apr 29, 4:30 PM)29.27 "Hg (Apr 21, 9:30 PM)
Average50 °F62%29.88 "Hg
* Reported Apr 15 1:00 PM — Apr 30 1:00 PM, Nizhny Novgorod, Weather by CustomWeather, © 2016

Note: Actual official high and low records may vary slightly from our data, if they occured in-between our weather recording intervals... More about our weather records

Advertising

Nizhny Novgorod Weather History for the Previous 24 Hours

Scroll right to see more
 ConditionsComfort  
Time TempWeatherWind HumidityBarometerVisibility
1:00 PM
Sat, Apr 30
57 °FPassing clouds.10 mph33%30.24 "HgN/A
12:30 PM59 °FPassing clouds.10 mph31%30.27 "HgN/A
12:00 PM57 °FPassing clouds.8 mph33%30.27 "HgN/A
11:30 AM55 °FSunny.10 mph36%30.27 "Hg10 mi
11:00 AM54 °FPassing clouds.8 mph38%30.27 "HgN/A
10:30 AM55 °FPassing clouds.6 mph36%30.30 "HgN/A
10:00 AM54 °FSunny.13 mph38%30.30 "Hg10 mi
9:30 AM52 °FSunny.10 mph41%30.30 "Hg10 mi
9:00 AM52 °FSunny.8 mph41%30.30 "Hg10 mi
8:30 AM52 °FSunny.8 mph38%30.30 "Hg10 mi
8:00 AM50 °FSunny.8 mph40%30.30 "Hg10 mi
7:30 AM50 °FPassing clouds.6 mph40%30.30 "HgN/A
7:00 AM48 °FSunny.10 mph43%30.30 "Hg10 mi
6:00 AM45 °FSunny.6 mph57%30.30 "Hg10 mi
5:30 AM43 °FClear.8 mph57%30.30 "Hg6 mi
4:30 AM36 °FSunny.6 mph70%30.30 "Hg10 mi
3:30 AM43 °FClear.6 mph49%30.30 "Hg10 mi
2:30 AM45 °FClear.6 mph49%30.33 "Hg10 mi
2:00 AM45 °FClear.6 mph49%30.33 "Hg10 mi
1:30 AM45 °FClear.6 mph49%30.33 "Hg10 mi
1:00 AM45 °FClear.6 mph46%30.33 "Hg10 mi
12:30 AM46 °FClear.6 mph43%30.33 "Hg10 mi
12:00 AM48 °FClear.6 mph37%30.33 "Hg10 mi
11:30 PM
Fri, Apr 29
48 °FClear.6 mph37%30.33 "Hg10 mi
11:00 PM48 °FClear.8 mph37%30.33 "Hg10 mi
10:30 PM50 °FClear.6 mph35%30.33 "Hg10 mi
10:00 PM50 °FClear.8 mph32%30.33 "Hg10 mi
9:30 PM50 °FClear.6 mph35%30.33 "Hg10 mi
9:00 PM52 °FClear.6 mph30%30.33 "Hg10 mi
8:30 PM52 °FClear.6 mph28%30.33 "Hg10 mi
8:00 PM54 °FClear.6 mph26%30.33 "Hg10 mi
7:30 PM55 °FSunny.8 mph24%30.33 "Hg10 mi
7:00 PM55 °FSunny.10 mph24%30.33 "Hg10 mi
6:30 PM57 °FSunny.13 mph23%30.33 "Hg10 mi
6:00 PM57 °FSunny.13 mph20%30.30 "Hg10 mi
5:30 PM59 °FSunny.13 mph18%30.30 "Hg10 mi
5:00 PM59 °FSunny.10 mph18%30.30 "Hg10 mi
4:30 PM59 °FSunny.13 mph17%30.33 "Hg10 mi
4:00 PM59 °FPassing clouds.13 mph18%30.33 "HgN/A
3:30 PM59 °FPassing clouds.15 mph20%30.33 "HgN/A
3:00 PM59 °FPassing clouds.13 mph21%30.33 "HgN/A
2:30 PM61 °FPassing clouds.10 mph20%30.33 "HgN/A
2:00 PM59 °FPassing clouds.15 mph23%30.33 "HgN/A
Weather by CustomWeather, © 2016

See weather overviewHow to use our weather pages